Troy, AL

6:52 AM CDT on June 25, 2017 (GMT -0500)
Troy Municipal

Weather History for KTOI - January, 2014

Change the Weather History Date:

Wednesday, January 29, 2014

  Actual Average Record
Temperature  
Mean Temperature 21 °F 47 °F  
Max Temperature 29 °F 59 °F 77 °F (2013)
Min Temperature 13 °F 35 °F 13 °F (2014)
Degree Days  
Heating Degree Days 44 18  
Month to date heating degree days 705 542  
Since 1 July heating degree days 1486 1459  
Moisture  
Dew Point 10 °F    
Average Humidity 64    
Maximum Humidity 88    
Minimum Humidity 39    
Precipitation  
Precipitation 0.00 in 0.16 in 1.23 in (2001)
Month to date precipitation 3.20 4.23  
Year to date precipitation 3.20 4.23  
Snow  
Snow 0.00 in - - ()
Month to date snowfall 0.3  
Since 1 July snowfall 0.3  
Snow Depth 0.00 in    
Sea Level Pressure  
Sea Level Pressure 30.34 in    
Wind  
Wind Speed 8 mph (North)    
Max Wind Speed 20 mph    
Max Gust Speed 24 mph    
Visibility 10 miles    
Events      
T = Trace of Precipitation, MM = Missing Value Source: NWS Daily Summary

Daily Weather History Graph

Daily Weather History Graph

Search for Another Location

Airport or City:

Trip Planner

Search our weather history database for the weather conditions in past years. The results will help you decide how hot, cold, wet, or windy it might be!

Date:

Astronomy

Jan. 29, 2014 Rise Set
Actual Time 6:39 AM CST 5:15 PM CST
Civil Twilight 6:13 AM CST 5:41 PM CST
Nautical Twilight 5:44 AM CST 6:10 PM CST
Astronomical Twilight 5:15 AM CST 6:39 PM CST
Moon 5:14 AM CST (1/29) 4:14 PM CST (1/29)
Length of Visible Light 11h 27m
Length of Day
10h 36m
Waning Crescent, 2% of the Moon is Illuminated
Jan 29
Waning Crescent
Jan 30
New
Feb 6
First Quarter
Feb 14
Full
Feb 22
Last Quarter

Hourly Weather History & Observations

Time (CST) Temp. Windchill Dew Point Humidity Pressure Visibility Wind Dir Wind Speed Gust Speed Precip Events Conditions
12:14 AM 23.0 °F 11.7 °F 17.1 °F 78% 30.26 in 10.0 mi NNW 11.5 mph 21.9 mph N/A   Overcast
12:21 AM 23.0 °F 10.1 °F 16.0 °F 74% 30.27 in 10.0 mi NNW 15.0 mph 24.2 mph N/A   Mostly Cloudy
12:53 AM 23.0 °F 10.6 °F 15.1 °F 72% 30.29 in 10.0 mi NNW 13.8 mph - N/A   Mostly Cloudy
1:53 AM 21.9 °F 11.7 °F 16.0 °F 78% 30.30 in 10.0 mi NNW 9.2 mph - N/A   Clear
2:53 AM 21.9 °F 9.8 °F 12.9 °F 68% 30.28 in 10.0 mi North 12.7 mph - N/A   Partly Cloudy
3:53 AM 21.0 °F 7.1 °F 12.0 °F 68% 30.30 in 10.0 mi NNW 16.1 mph - N/A   Clear
4:53 AM 21.0 °F 9.9 °F 10.9 °F 65% 30.30 in 10.0 mi North 10.4 mph - N/A   Clear
5:53 AM 19.9 °F 9.3 °F 10.9 °F 68% 30.32 in 10.0 mi NNW 9.2 mph - N/A   Clear
6:53 AM 19.0 °F 8.2 °F 7.0 °F 59% 30.36 in 10.0 mi NNW 9.2 mph - N/A   Clear
7:53 AM 19.0 °F 6.8 °F 7.0 °F 59% 30.39 in 10.0 mi North 11.5 mph - N/A   Clear
8:53 AM 21.0 °F 9.9 °F 6.1 °F 53% 30.40 in 10.0 mi NNE 10.4 mph - N/A   Clear
9:53 AM 21.9 °F 10.4 °F 6.1 °F 51% 30.41 in 10.0 mi North 11.5 mph - N/A   Clear
10:53 AM 23.0 °F 12.4 °F 8.1 °F 53% 30.40 in 10.0 mi North 10.4 mph - N/A   Clear
11:53 AM 24.1 °F 13.7 °F 8.1 °F 51% 30.39 in 10.0 mi NNW 10.4 mph - N/A   Clear
12:53 PM 25.0 °F 15.5 °F 7.0 °F 46% 30.37 in 10.0 mi NNW 9.2 mph - N/A   Clear
1:53 PM 27.0 °F 18.0 °F 6.1 °F 41% 30.35 in 10.0 mi North 9.2 mph - N/A   Clear
2:53 PM 28.9 °F 19.8 °F 7.0 °F 40% 30.33 in 10.0 mi North 10.4 mph - N/A   Clear
3:53 PM 28.0 °F 20.8 °F 7.0 °F 41% 30.34 in 10.0 mi NNE 6.9 mph - N/A   Clear
4:53 PM 28.0 °F 20.8 °F 6.1 °F 39% 30.33 in 10.0 mi North 6.9 mph - N/A   Clear
5:53 PM 26.1 °F - 9.0 °F 49% 30.35 in 10.0 mi Calm Calm - N/A   Clear
6:53 PM 21.9 °F - 12.0 °F 66% 30.36 in 10.0 mi Calm Calm - N/A   Clear
7:53 PM 19.0 °F - 12.0 °F 74% 30.36 in 10.0 mi Calm Calm - N/A   Clear
8:53 PM 19.0 °F 12.3 °F 10.0 °F 68% 30.37 in 10.0 mi North 4.6 mph - N/A   Clear
9:53 PM 15.1 °F - 10.9 °F 84% 30.38 in 10.0 mi Calm Calm - N/A   Clear
10:53 PM 14.0 °F - 10.0 °F 84% 30.38 in 10.0 mi Calm Calm - N/A   Clear
11:53 PM 14.0 °F - 10.0 °F 84% 30.37 in 10.0 mi Calm Calm - N/A   Clear